2020-085W

Last updated on Thu Dec 03 2020 00:02:04 GMT+0000 (Coordinated Universal Time)

1 46949U 20085W 20337.63094093 .00010408 00000-0 47886-3 0 9995 2 46949 97.3682 111.9917 0014350 267.2269 92.7324 15.20426347 1906
UTC large
Height (km)
Speed (km/s)
/
Latitude / Longitude
Inclination (degrees)
Orbital Period (minutes)
Azimuth
Elevation
Range (km)
Doppler Factor

Next 0 passes for location: London (51.5072 / 0.1276)

Sorry there are no passes over London.